Year,Month,Day,Hour,Minute,Value (Times are PST for temperature in C)
2012,08,20,00,00,18.40
2012,08,20,00,01,18.40
2012,08,20,00,02,18.40
2012,08,20,00,03,18.40
2012,08,20,00,04,18.30
2012,08,20,00,05,18.30
2012,08,20,00,06,18.30
2012,08,20,00,07,18.30
2012,08,20,00,08,18.30
2012,08,20,00,09,18.20
2012,08,20,00,10,18.20
2012,08,20,00,11,18.20
2012,08,20,00,12,18.20
2012,08,20,00,13,18.20
2012,08,20,00,14,18.10
2012,08,20,00,15,18.10
2012,08,20,00,16,18.10
2012,08,20,00,17,18.10
2012,08,20,00,18,18.10
2012,08,20,00,19,18.10
2012,08,20,00,20,18.00
2012,08,20,00,21,18.00
2012,08,20,00,22,18.00
2012,08,20,00,23,18.00
2012,08,20,00,24,18.00
2012,08,20,00,25,17.90
2012,08,20,00,26,17.90
2012,08,20,00,27,17.90
2012,08,20,00,28,17.90
2012,08,20,00,29,17.90
2012,08,20,00,30,17.90
2012,08,20,00,31,17.90
2012,08,20,00,32,17.80
2012,08,20,00,33,17.80
2012,08,20,00,34,17.80
2012,08,20,00,35,17.80
2012,08,20,00,36,17.80
2012,08,20,00,37,17.80
2012,08,20,00,38,17.80
2012,08,20,00,39,17.80
2012,08,20,00,40,17.80
2012,08,20,00,41,17.80
2012,08,20,00,42,17.80
2012,08,20,00,43,17.80
2012,08,20,00,44,17.80
2012,08,20,00,45,17.80
2012,08,20,00,46,17.80
2012,08,20,00,47,17.80
2012,08,20,00,48,17.80
2012,08,20,00,49,17.80
2012,08,20,00,50,17.80
2012,08,20,00,51,17.70
2012,08,20,00,52,17.70
2012,08,20,00,53,17.70
2012,08,20,00,54,17.70
2012,08,20,00,55,17.70
2012,08,20,00,56,17.70
2012,08,20,00,57,17.70
2012,08,20,00,58,17.70
2012,08,20,00,59,17.70
2012,08,20,01,00,17.70
2012,08,20,01,01,17.70
2012,08,20,01,02,17.70
2012,08,20,01,03,17.60
2012,08,20,01,04,17.60
2012,08,20,01,05,17.60
2012,08,20,01,06,17.60
2012,08,20,01,07,17.60
2012,08,20,01,08,17.50
2012,08,20,01,09,17.50
2012,08,20,01,10,17.50
2012,08,20,01,11,17.50
2012,08,20,01,12,17.40
2012,08,20,01,13,17.40
2012,08,20,01,14,17.40
2012,08,20,01,15,17.40
2012,08,20,01,16,17.40
2012,08,20,01,17,17.30
2012,08,20,01,18,17.30
2012,08,20,01,19,17.30
2012,08,20,01,20,17.30
2012,08,20,01,21,17.30
2012,08,20,01,22,17.30
2012,08,20,01,23,17.30
2012,08,20,01,24,17.30
2012,08,20,01,25,17.30
2012,08,20,01,26,17.30
2012,08,20,01,27,17.30
2012,08,20,01,28,17.30
2012,08,20,01,29,17.30
2012,08,20,01,30,17.20
2012,08,20,01,31,17.20
2012,08,20,01,32,17.20
2012,08,20,01,33,17.20
2012,08,20,01,34,17.20
2012,08,20,01,35,17.20
2012,08,20,01,36,17.20
2012,08,20,01,37,17.20
2012,08,20,01,38,17.20
2012,08,20,01,39,17.20
2012,08,20,01,40,17.20
2012,08,20,01,41,17.20
2012,08,20,01,42,17.20
2012,08,20,01,43,17.20
2012,08,20,01,44,17.20
2012,08,20,01,45,17.20
2012,08,20,01,46,17.20
2012,08,20,01,47,17.30
2012,08,20,01,48,17.30
2012,08,20,01,49,17.30
2012,08,20,01,50,17.30
2012,08,20,01,51,17.30
2012,08,20,01,52,17.30
2012,08,20,01,53,17.30
2012,08,20,01,54,17.30
2012,08,20,01,55,17.30
2012,08,20,01,56,17.30
2012,08,20,01,57,17.30
2012,08,20,01,58,17.20
2012,08,20,01,59,17.20
2012,08,20,02,00,17.20
2012,08,20,02,01,17.20
2012,08,20,02,02,17.20
2012,08,20,02,03,17.20
2012,08,20,02,04,17.20
2012,08,20,02,05,17.20
2012,08,20,02,06,17.20
2012,08,20,02,07,17.20
2012,08,20,02,08,17.20
2012,08,20,02,09,17.10
2012,08,20,02,10,17.10
2012,08,20,02,11,17.10
2012,08,20,02,12,17.10
2012,08,20,02,13,17.10
2012,08,20,02,14,17.10
2012,08,20,02,15,17.10
2012,08,20,02,16,17.10
2012,08,20,02,17,17.10
2012,08,20,02,18,17.00
2012,08,20,02,19,17.00
2012,08,20,02,20,17.00
2012,08,20,02,21,17.00
2012,08,20,02,22,17.00
2012,08,20,02,23,16.90
2012,08,20,02,24,16.90
2012,08,20,02,25,16.90
2012,08,20,02,26,16.90
2012,08,20,02,27,16.90
2012,08,20,02,28,16.90
2012,08,20,02,29,16.80
2012,08,20,02,30,16.80
2012,08,20,02,31,16.80
2012,08,20,02,32,16.80
2012,08,20,02,33,16.80
2012,08,20,02,34,16.80
2012,08,20,02,35,16.80
2012,08,20,02,36,16.80
2012,08,20,02,37,16.80
2012,08,20,02,38,16.80
2012,08,20,02,39,16.80
2012,08,20,02,40,16.70
2012,08,20,02,41,16.70
2012,08,20,02,42,16.70
2012,08,20,02,43,16.70
2012,08,20,02,44,16.70
2012,08,20,02,45,16.60
2012,08,20,02,46,16.60
2012,08,20,02,47,16.60
2012,08,20,02,48,16.60
2012,08,20,02,49,16.50
2012,08,20,02,50,16.50
2012,08,20,02,51,16.40
2012,08,20,02,52,16.40
2012,08,20,02,53,16.40
2012,08,20,02,54,16.30
2012,08,20,02,55,16.30
2012,08,20,02,56,16.30
2012,08,20,02,57,16.30
2012,08,20,02,58,16.20
2012,08,20,02,59,16.20
2012,08,20,03,00,16.20
2012,08,20,03,01,16.10
2012,08,20,03,02,16.10
2012,08,20,03,03,16.00
2012,08,20,03,04,16.00
2012,08,20,03,05,16.00
2012,08,20,03,06,15.90
2012,08,20,03,07,15.90
2012,08,20,03,08,15.80
2012,08,20,03,09,15.80
2012,08,20,03,10,15.80
2012,08,20,03,11,15.80
2012,08,20,03,12,15.80
2012,08,20,03,13,15.70
2012,08,20,03,14,15.70
2012,08,20,03,15,15.70
2012,08,20,03,16,15.70
2012,08,20,03,17,15.70
2012,08,20,03,18,15.70
2012,08,20,03,19,15.70
2012,08,20,03,20,15.70
2012,08,20,03,21,15.60
2012,08,20,03,22,15.60
2012,08,20,03,23,15.60
2012,08,20,03,24,15.60
2012,08,20,03,25,15.60
2012,08,20,03,26,15.60
2012,08,20,03,27,15.50
2012,08,20,03,28,15.50
2012,08,20,03,29,15.50
2012,08,20,03,30,15.50
2012,08,20,03,31,15.40
2012,08,20,03,32,15.40
2012,08,20,03,33,15.40
2012,08,20,03,34,15.40
2012,08,20,03,35,15.30
2012,08,20,03,36,15.30
2012,08,20,03,37,15.30
2012,08,20,03,38,15.30
2012,08,20,03,39,15.30
2012,08,20,03,40,15.30
2012,08,20,03,41,15.30
2012,08,20,03,42,15.30
2012,08,20,03,43,15.30
2012,08,20,03,44,15.30
2012,08,20,03,45,15.30
2012,08,20,03,46,15.30
2012,08,20,03,47,15.30
2012,08,20,03,48,15.20
2012,08,20,03,49,15.20
2012,08,20,03,50,15.20
2012,08,20,03,51,15.20
2012,08,20,03,52,15.20
2012,08,20,03,53,15.20
2012,08,20,03,54,15.10
2012,08,20,03,55,15.10
2012,08,20,03,56,15.10
2012,08,20,03,57,15.10
2012,08,20,03,58,15.00
2012,08,20,03,59,15.00
2012,08,20,04,00,14.90
2012,08,20,04,01,14.90
2012,08,20,04,02,14.90
2012,08,20,04,03,14.80
2012,08,20,04,04,14.80
2012,08,20,04,05,14.80
2012,08,20,04,06,14.70
2012,08,20,04,07,14.70
2012,08,20,04,08,14.60
2012,08,20,04,09,14.60
2012,08,20,04,10,14.60
2012,08,20,04,11,14.50
2012,08,20,04,12,14.50
2012,08,20,04,13,14.50
2012,08,20,04,14,14.50
2012,08,20,04,15,14.50
2012,08,20,04,16,14.50
2012,08,20,04,17,14.50
2012,08,20,04,18,14.50
2012,08,20,04,19,14.50
2012,08,20,04,20,14.50
2012,08,20,04,21,14.60
2012,08,20,04,22,14.60
2012,08,20,04,23,14.60
2012,08,20,04,24,14.60
2012,08,20,04,25,14.60
2012,08,20,04,26,14.60
2012,08,20,04,27,14.50
2012,08,20,04,28,14.50
2012,08,20,04,29,14.50
2012,08,20,04,30,14.50
2012,08,20,04,31,14.50
2012,08,20,04,32,14.40
2012,08,20,04,33,14.40
2012,08,20,04,34,14.40
2012,08,20,04,35,14.40
2012,08,20,04,36,14.40
2012,08,20,04,37,14.40
2012,08,20,04,38,14.40
2012,08,20,04,39,14.40
2012,08,20,04,40,14.40
2012,08,20,04,41,14.40
2012,08,20,04,42,14.30
2012,08,20,04,43,14.30
2012,08,20,04,44,14.30
2012,08,20,04,45,14.30
2012,08,20,04,46,14.30
2012,08,20,04,47,14.30
2012,08,20,04,48,14.30
2012,08,20,04,49,14.30
2012,08,20,04,50,14.20
2012,08,20,04,51,14.20
2012,08,20,04,52,14.20
2012,08,20,04,53,14.20
2012,08,20,04,54,14.20
2012,08,20,04,55,14.20
2012,08,20,04,56,14.20
2012,08,20,04,57,14.10
2012,08,20,04,58,14.10
2012,08,20,04,59,14.10
2012,08,20,05,00,14.10
2012,08,20,05,01,14.10
2012,08,20,05,02,14.10
2012,08,20,05,03,14.10
2012,08,20,05,04,14.10
2012,08,20,05,05,14.10
2012,08,20,05,06,14.10
2012,08,20,05,07,14.00
2012,08,20,05,08,14.00
2012,08,20,05,09,14.00
2012,08,20,05,10,14.00
2012,08,20,05,11,14.00
2012,08,20,05,12,14.00
2012,08,20,05,13,14.00
2012,08,20,05,14,14.00
2012,08,20,05,15,14.00
2012,08,20,05,16,14.00
2012,08,20,05,17,13.90
2012,08,20,05,18,13.90
2012,08,20,05,19,13.90
2012,08,20,05,20,13.90
2012,08,20,05,21,13.90
2012,08,20,05,22,13.90
2012,08,20,05,23,13.90
2012,08,20,05,24,13.90
2012,08,20,05,25,13.90
2012,08,20,05,26,13.90
2012,08,20,05,27,13.90
2012,08,20,05,28,13.90
2012,08,20,05,29,13.90
2012,08,20,05,30,13.90
2012,08,20,05,31,13.90
2012,08,20,05,32,13.90
2012,08,20,05,33,13.80
2012,08,20,05,34,13.80
2012,08,20,05,35,13.80
2012,08,20,05,36,13.80
2012,08,20,05,37,13.80
2012,08,20,05,38,13.80
2012,08,20,05,39,13.80
2012,08,20,05,40,13.80
2012,08,20,05,41,13.80
2012,08,20,05,42,13.80
2012,08,20,05,43,13.80
2012,08,20,05,44,13.80
2012,08,20,05,45,13.80
2012,08,20,05,46,13.80
2012,08,20,05,47,13.80
2012,08,20,05,48,13.80
2012,08,20,05,49,13.80
2012,08,20,05,50,13.80
2012,08,20,05,51,13.80
2012,08,20,05,52,13.80
2012,08,20,05,53,13.80
2012,08,20,05,54,13.80
2012,08,20,05,55,13.70
2012,08,20,05,56,13.70
2012,08,20,05,57,13.70
2012,08,20,05,58,13.70
2012,08,20,05,59,13.70
2012,08,20,06,00,13.70
2012,08,20,06,01,13.70
2012,08,20,06,02,13.70
2012,08,20,06,03,13.70
2012,08,20,06,04,13.70
2012,08,20,06,05,13.70
2012,08,20,06,06,13.70
2012,08,20,06,07,13.70
2012,08,20,06,08,13.70
2012,08,20,06,09,13.70
2012,08,20,06,10,13.70
2012,08,20,06,11,13.70
2012,08,20,06,12,13.70
2012,08,20,06,13,13.70
2012,08,20,06,14,13.70
2012,08,20,06,15,13.70
2012,08,20,06,16,13.70
2012,08,20,06,17,13.70
2012,08,20,06,18,13.70
2012,08,20,06,19,13.70
2012,08,20,06,20,13.70
2012,08,20,06,21,13.70
2012,08,20,06,22,13.70
2012,08,20,06,23,13.70
2012,08,20,06,24,13.70
2012,08,20,06,25,13.70
2012,08,20,06,26,13.70
2012,08,20,06,27,13.70
2012,08,20,06,28,13.70
2012,08,20,06,29,13.70
2012,08,20,06,30,13.70
2012,08,20,06,31,13.70
2012,08,20,06,32,13.70
2012,08,20,06,33,13.70
2012,08,20,06,34,13.70
2012,08,20,06,35,13.60
2012,08,20,06,36,13.60
2012,08,20,06,37,13.60
2012,08,20,06,38,13.60
2012,08,20,06,39,13.60
2012,08,20,06,40,13.60
2012,08,20,06,41,13.60
2012,08,20,06,42,13.60
2012,08,20,06,43,13.60
2012,08,20,06,44,13.60
2012,08,20,06,45,13.60
2012,08,20,06,46,13.60
2012,08,20,06,47,13.60
2012,08,20,06,48,13.60
2012,08,20,06,49,13.60
2012,08,20,06,50,13.60
2012,08,20,06,51,13.60
2012,08,20,06,52,13.60
2012,08,20,06,53,13.60
2012,08,20,06,54,13.60
2012,08,20,06,55,13.60
2012,08,20,06,56,13.60
2012,08,20,06,57,13.60
2012,08,20,06,58,13.60
2012,08,20,06,59,13.60
2012,08,20,07,00,13.60
2012,08,20,07,01,13.60
2012,08,20,07,02,13.60
2012,08,20,07,03,13.60
2012,08,20,07,04,13.60
2012,08,20,07,05,13.60
2012,08,20,07,06,13.60
2012,08,20,07,07,13.60
2012,08,20,07,08,13.60
2012,08,20,07,09,13.60
2012,08,20,07,10,13.60
2012,08,20,07,11,13.60
2012,08,20,07,12,13.60
2012,08,20,07,13,13.60
2012,08,20,07,14,13.60
2012,08,20,07,15,13.60
2012,08,20,07,16,13.60
2012,08,20,07,17,13.60
2012,08,20,07,18,13.60
2012,08,20,07,19,13.60
2012,08,20,07,20,13.60
2012,08,20,07,21,13.60
2012,08,20,07,22,13.60
2012,08,20,07,23,13.60
2012,08,20,07,24,13.60
2012,08,20,07,25,13.60
2012,08,20,07,26,13.60
2012,08,20,07,27,13.60
2012,08,20,07,28,13.60
2012,08,20,07,29,13.60
2012,08,20,07,30,13.70
2012,08,20,07,31,13.70
2012,08,20,07,32,13.70
2012,08,20,07,33,13.70
2012,08,20,07,34,13.70
2012,08,20,07,35,13.80
2012,08,20,07,36,13.80
2012,08,20,07,37,13.80
2012,08,20,07,38,13.80
2012,08,20,07,39,13.80
2012,08,20,07,40,13.90
2012,08,20,07,41,13.90
2012,08,20,07,42,13.90
2012,08,20,07,43,13.90
2012,08,20,07,44,14.00
2012,08,20,07,45,14.00
2012,08,20,07,46,14.10
2012,08,20,07,47,14.10
2012,08,20,07,48,14.10
2012,08,20,07,49,14.10
2012,08,20,07,50,14.20
2012,08,20,07,51,14.20
2012,08,20,07,52,14.20
2012,08,20,07,53,14.30
2012,08,20,07,54,14.30
2012,08,20,07,55,14.30
2012,08,20,07,56,14.30
2012,08,20,07,57,14.40
2012,08,20,07,58,14.40
2012,08,20,07,59,14.50
2012,08,20,08,00,14.50
2012,08,20,08,01,14.60
2012,08,20,08,02,14.60
2012,08,20,08,03,14.70
2012,08,20,08,04,14.80
2012,08,20,08,05,14.80
2012,08,20,08,06,14.90
2012,08,20,08,07,14.90
2012,08,20,08,08,15.00
2012,08,20,08,09,15.10
2012,08,20,08,10,15.10
2012,08,20,08,11,15.20
2012,08,20,08,12,15.30
2012,08,20,08,13,15.40
2012,08,20,08,14,15.50
2012,08,20,08,15,15.50
2012,08,20,08,16,15.60
2012,08,20,08,17,15.70
2012,08,20,08,18,15.80
2012,08,20,08,19,15.90
2012,08,20,08,20,16.00
2012,08,20,08,21,16.20
2012,08,20,08,22,16.30
2012,08,20,08,23,16.40
2012,08,20,08,24,16.50
2012,08,20,08,25,16.60
2012,08,20,08,26,16.70
2012,08,20,08,27,16.80
2012,08,20,08,28,16.90
2012,08,20,08,29,16.90
2012,08,20,08,30,17.00
2012,08,20,08,31,17.10
2012,08,20,08,32,17.20
2012,08,20,08,33,17.30
2012,08,20,08,34,17.30
2012,08,20,08,35,17.40
2012,08,20,08,36,17.50
2012,08,20,08,37,17.60
2012,08,20,08,38,17.70
2012,08,20,08,39,17.80
2012,08,20,08,40,17.80
2012,08,20,08,41,17.80
2012,08,20,08,42,17.80
2012,08,20,08,43,17.90
2012,08,20,08,44,17.90
2012,08,20,08,45,17.90
2012,08,20,08,46,17.80
2012,08,20,08,47,17.70
2012,08,20,08,48,17.60
2012,08,20,08,49,17.50
2012,08,20,08,50,17.50
2012,08,20,08,51,17.40
2012,08,20,08,52,17.30
2012,08,20,08,53,17.30
2012,08,20,08,54,17.30
2012,08,20,08,55,17.20
2012,08,20,08,56,17.20
2012,08,20,08,57,17.20
2012,08,20,08,58,17.30
2012,08,20,08,59,17.30
2012,08,20,09,00,17.40
2012,08,20,09,01,17.50
2012,08,20,09,02,17.60
2012,08,20,09,03,17.60
2012,08,20,09,04,17.70
2012,08,20,09,05,17.70
2012,08,20,09,06,17.80
2012,08,20,09,07,17.90
2012,08,20,09,08,17.90
2012,08,20,09,09,18.00
2012,08,20,09,10,18.10
2012,08,20,09,11,18.20
2012,08,20,09,12,18.30
2012,08,20,09,13,18.30
2012,08,20,09,14,18.40
2012,08,20,09,15,18.40
2012,08,20,09,16,18.40
2012,08,20,09,17,18.40
2012,08,20,09,18,18.40
2012,08,20,09,19,18.40
2012,08,20,09,20,18.40
2012,08,20,09,21,18.40
2012,08,20,09,22,18.40
2012,08,20,09,23,18.50
2012,08,20,09,24,18.60
2012,08,20,09,25,18.60
2012,08,20,09,26,18.80
2012,08,20,09,27,18.90
2012,08,20,09,28,19.00
2012,08,20,09,29,19.10
2012,08,20,09,30,19.20
2012,08,20,09,31,19.30
2012,08,20,09,32,19.30
2012,08,20,09,33,19.40
2012,08,20,09,34,19.50
2012,08,20,09,35,19.60
2012,08,20,09,36,19.70
2012,08,20,09,37,19.70
2012,08,20,09,38,19.60
2012,08,20,09,39,19.60
2012,08,20,09,40,19.60
2012,08,20,09,41,19.60
2012,08,20,09,42,19.60
2012,08,20,09,43,19.60
2012,08,20,09,44,19.60
2012,08,20,09,45,19.60
2012,08,20,09,46,19.60
2012,08,20,09,47,19.60
2012,08,20,09,48,19.60
2012,08,20,09,49,19.70
2012,08,20,09,50,19.70
2012,08,20,09,51,19.60
2012,08,20,09,52,19.60
2012,08,20,09,53,19.60
2012,08,20,09,54,19.60
2012,08,20,09,55,19.60
2012,08,20,09,56,19.60
2012,08,20,09,57,19.50
2012,08,20,09,58,19.50
2012,08,20,09,59,19.40
2012,08,20,10,00,19.40
2012,08,20,10,01,19.30
2012,08,20,10,02,19.20
2012,08,20,10,03,19.20
2012,08,20,10,04,19.20
2012,08,20,10,05,19.10
2012,08,20,10,06,19.00
2012,08,20,10,07,18.90
2012,08,20,10,08,18.80
2012,08,20,10,09,18.80
2012,08,20,10,10,18.90
2012,08,20,10,11,19.00
2012,08,20,10,12,19.10
2012,08,20,10,13,19.10
2012,08,20,10,14,19.30
2012,08,20,10,15,19.40
2012,08,20,10,16,19.50
2012,08,20,10,17,19.60
2012,08,20,10,18,19.60
2012,08,20,10,19,19.60
2012,08,20,10,20,19.70
2012,08,20,10,21,19.70
2012,08,20,10,22,19.80
2012,08,20,10,23,19.80
2012,08,20,10,24,19.80
2012,08,20,10,25,19.90
2012,08,20,10,26,19.90
2012,08,20,10,27,20.00
2012,08,20,10,28,20.10
2012,08,20,10,29,20.10
2012,08,20,10,30,20.20
2012,08,20,10,31,20.30
2012,08,20,10,32,20.50
2012,08,20,10,33,20.60
2012,08,20,10,34,20.70
2012,08,20,10,35,20.80
2012,08,20,10,36,20.80
2012,08,20,10,37,20.80
2012,08,20,10,38,20.80
2012,08,20,10,39,20.80
2012,08,20,10,40,20.80
2012,08,20,10,41,20.80
2012,08,20,10,42,20.70
2012,08,20,10,43,20.70
2012,08,20,10,44,20.60
2012,08,20,10,45,20.60
2012,08,20,10,46,20.60
2012,08,20,10,47,20.60
2012,08,20,10,48,20.60
2012,08,20,10,49,20.70
2012,08,20,10,50,20.70
2012,08,20,10,51,20.80
2012,08,20,10,52,20.80
2012,08,20,10,53,20.80
2012,08,20,10,54,20.80
2012,08,20,10,55,20.80
2012,08,20,10,56,20.80
2012,08,20,10,57,20.80
2012,08,20,10,58,20.80
2012,08,20,10,59,20.80
2012,08,20,11,00,20.70
2012,08,20,11,01,20.80
2012,08,20,11,02,20.80
2012,08,20,11,03,20.80
2012,08,20,11,04,20.80
2012,08,20,11,05,20.80
2012,08,20,11,06,20.80
2012,08,20,11,07,20.80
2012,08,20,11,08,20.90
2012,08,20,11,09,20.80
2012,08,20,11,10,20.80
2012,08,20,11,11,20.90
2012,08,20,11,12,20.90
2012,08,20,11,13,20.90
2012,08,20,11,14,20.80
2012,08,20,11,15,20.80
2012,08,20,11,16,20.80
2012,08,20,11,17,20.80
2012,08,20,11,18,20.80
2012,08,20,11,19,20.70
2012,08,20,11,20,20.60
2012,08,20,11,21,20.50
2012,08,20,11,22,20.40
2012,08,20,11,23,20.30
2012,08,20,11,24,20.30
2012,08,20,11,25,20.30
2012,08,20,11,26,20.20
2012,08,20,11,27,20.20
2012,08,20,11,28,20.20
2012,08,20,11,29,20.30
2012,08,20,11,30,20.30
2012,08,20,11,31,20.30
2012,08,20,11,32,20.30
2012,08,20,11,33,20.30
2012,08,20,11,34,20.30
2012,08,20,11,35,20.30
2012,08,20,11,36,20.40
2012,08,20,11,37,20.50
2012,08,20,11,38,20.70
2012,08,20,11,39,20.80
2012,08,20,11,40,20.90
2012,08,20,11,41,20.90
2012,08,20,11,42,20.90
2012,08,20,11,43,20.90
2012,08,20,11,44,20.90
2012,08,20,11,45,20.80
2012,08,20,11,46,20.80
2012,08,20,11,47,20.70
2012,08,20,11,48,20.60
2012,08,20,11,49,20.60
2012,08,20,11,50,20.50
2012,08,20,11,51,20.40
2012,08,20,11,52,20.40
2012,08,20,11,53,20.30
2012,08,20,11,54,20.30
2012,08,20,11,55,20.40
2012,08,20,11,56,20.50
2012,08,20,11,57,20.60
2012,08,20,11,58,20.70
2012,08,20,11,59,20.80
2012,08,20,12,00,20.80
2012,08,20,12,01,20.80
2012,08,20,12,02,20.80
2012,08,20,12,03,20.80
2012,08,20,12,04,20.80
2012,08,20,12,05,20.90
2012,08,20,12,06,20.90
2012,08,20,12,07,20.90
2012,08,20,12,08,20.90
2012,08,20,12,09,20.90
2012,08,20,12,10,20.90
2012,08,20,12,11,21.00
2012,08,20,12,12,21.00
2012,08,20,12,13,21.10
2012,08,20,12,14,21.10
2012,08,20,12,15,21.20
2012,08,20,12,16,21.20
2012,08,20,12,17,21.20
2012,08,20,12,18,21.10
2012,08,20,12,19,21.00
2012,08,20,12,20,21.10
2012,08,20,12,21,21.10
2012,08,20,12,22,21.10
2012,08,20,12,23,21.20
2012,08,20,12,24,21.20
2012,08,20,12,25,21.10
2012,08,20,12,26,21.10
2012,08,20,12,27,21.20
2012,08,20,12,28,21.20
2012,08,20,12,29,21.20
2012,08,20,12,30,21.20
2012,08,20,12,31,21.20
2012,08,20,12,32,21.20
2012,08,20,12,33,21.30
2012,08,20,12,34,21.30
2012,08,20,12,35,21.30
2012,08,20,12,36,21.30
2012,08,20,12,37,21.20
2012,08,20,12,38,21.20
2012,08,20,12,39,21.20
2012,08,20,12,40,21.20
2012,08,20,12,41,21.10
2012,08,20,12,42,21.10
2012,08,20,12,43,21.10
2012,08,20,12,44,21.10
2012,08,20,12,45,21.10
2012,08,20,12,46,21.10
2012,08,20,12,47,21.20
2012,08,20,12,48,21.20
2012,08,20,12,49,21.30
2012,08,20,12,50,21.40
2012,08,20,12,51,21.50
2012,08,20,12,52,21.60
2012,08,20,12,53,21.70
2012,08,20,12,54,21.80
2012,08,20,12,55,21.90
2012,08,20,12,56,22.00
2012,08,20,12,57,22.00
2012,08,20,12,58,22.10
2012,08,20,12,59,22.20
2012,08,20,13,00,22.20
2012,08,20,13,01,22.20
2012,08,20,13,02,22.20
2012,08,20,13,03,22.10
2012,08,20,13,04,22.10
2012,08,20,13,05,22.10
2012,08,20,13,06,22.10
2012,08,20,13,07,22.10
2012,08,20,13,08,22.10
2012,08,20,13,09,22.10
2012,08,20,13,10,22.10
2012,08,20,13,11,22.10
2012,08,20,13,12,22.10
2012,08,20,13,13,22.20
2012,08,20,13,14,22.20
2012,08,20,13,15,22.20
2012,08,20,13,16,22.20
2012,08,20,13,17,22.30
2012,08,20,13,18,22.30
2012,08,20,13,19,22.40
2012,08,20,13,20,22.40
2012,08,20,13,21,22.40
2012,08,20,13,22,22.40
2012,08,20,13,23,22.40
2012,08,20,13,24,22.40
2012,08,20,13,25,22.30
2012,08,20,13,26,22.30
2012,08,20,13,27,22.40
2012,08,20,13,28,22.40
2012,08,20,13,29,22.40
2012,08,20,13,30,22.30
2012,08,20,13,31,22.30
2012,08,20,13,32,22.20
2012,08,20,13,33,22.20
2012,08,20,13,34,22.20
2012,08,20,13,35,22.10
2012,08,20,13,36,22.10
2012,08,20,13,37,22.10
2012,08,20,13,38,22.20
2012,08,20,13,39,22.30
2012,08,20,13,40,22.40
2012,08,20,13,41,22.40
2012,08,20,13,42,22.50
2012,08,20,13,43,22.50
2012,08,20,13,44,22.50
2012,08,20,13,45,22.50
2012,08,20,13,46,22.40
2012,08,20,13,47,22.40
2012,08,20,13,48,22.40
2012,08,20,13,49,22.40
2012,08,20,13,50,22.40
2012,08,20,13,51,22.40
2012,08,20,13,52,22.50
2012,08,20,13,53,22.60
2012,08,20,13,54,22.60
2012,08,20,13,55,22.70
2012,08,20,13,56,22.70
2012,08,20,13,57,22.70
2012,08,20,13,58,22.70
2012,08,20,13,59,22.80
2012,08,20,14,00,22.80
2012,08,20,14,01,22.80
2012,08,20,14,02,22.70
2012,08,20,14,03,22.70
2012,08,20,14,04,22.60
2012,08,20,14,05,22.60
2012,08,20,14,06,22.60
2012,08,20,14,07,22.50
2012,08,20,14,08,22.40
2012,08,20,14,09,22.30
2012,08,20,14,10,22.30
2012,08,20,14,11,22.30
2012,08,20,14,12,22.30
2012,08,20,14,13,22.30
2012,08,20,14,14,22.40
2012,08,20,14,15,22.50
2012,08,20,14,16,22.70
2012,08,20,14,17,22.80
2012,08,20,14,18,22.90
2012,08,20,14,19,22.90
2012,08,20,14,20,22.90
2012,08,20,14,21,22.90
2012,08,20,14,22,22.90
2012,08,20,14,23,22.90
2012,08,20,14,24,23.00
2012,08,20,14,25,23.10
2012,08,20,14,26,23.10
2012,08,20,14,27,23.20
2012,08,20,14,28,23.20
2012,08,20,14,29,23.20
2012,08,20,14,30,23.20
2012,08,20,14,31,23.10
2012,08,20,14,32,23.10
2012,08,20,14,33,23.10
2012,08,20,14,34,23.00
2012,08,20,14,35,22.90
2012,08,20,14,36,22.90
2012,08,20,14,37,22.80
2012,08,20,14,38,22.80
2012,08,20,14,39,22.90
2012,08,20,14,40,22.90
2012,08,20,14,41,22.90
2012,08,20,14,42,22.90
2012,08,20,14,43,23.00
2012,08,20,14,44,23.00
2012,08,20,14,45,23.00
2012,08,20,14,46,22.90
2012,08,20,14,47,22.80
2012,08,20,14,48,22.80
2012,08,20,14,49,22.90
2012,08,20,14,50,22.90
2012,08,20,14,51,22.90
2012,08,20,14,52,22.90
2012,08,20,14,53,22.90
2012,08,20,14,54,22.90
2012,08,20,14,55,23.00
2012,08,20,14,56,23.10
2012,08,20,14,57,23.20
2012,08,20,14,58,23.30
2012,08,20,14,59,23.30
2012,08,20,15,00,23.40
2012,08,20,15,01,23.30
2012,08,20,15,02,23.30
2012,08,20,15,03,23.30
2012,08,20,15,04,23.30
2012,08,20,15,05,23.20
2012,08,20,15,06,23.20
2012,08,20,15,07,23.10
2012,08,20,15,08,23.10
2012,08,20,15,09,23.10
2012,08,20,15,10,23.20
2012,08,20,15,11,23.20
2012,08,20,15,12,23.10
2012,08,20,15,13,23.10
2012,08,20,15,14,23.20
2012,08,20,15,15,23.20
2012,08,20,15,16,23.30
2012,08,20,15,17,23.30
2012,08,20,15,18,23.40
2012,08,20,15,19,23.40
2012,08,20,15,20,23.40
2012,08,20,15,21,23.40
2012,08,20,15,22,23.40
2012,08,20,15,23,23.40
2012,08,20,15,24,23.40
2012,08,20,15,25,23.40
2012,08,20,15,26,23.30
2012,08,20,15,27,23.30
2012,08,20,15,28,23.20
2012,08,20,15,29,23.20
2012,08,20,15,30,23.20
2012,08,20,15,31,23.20
2012,08,20,15,32,23.20
2012,08,20,15,33,23.20
2012,08,20,15,34,23.20
2012,08,20,15,35,23.20
2012,08,20,15,36,23.20
2012,08,20,15,37,23.30
2012,08,20,15,38,23.30
2012,08,20,15,39,23.30
2012,08,20,15,40,23.40
2012,08,20,15,41,23.40
2012,08,20,15,42,23.40
2012,08,20,15,43,23.40
2012,08,20,15,44,23.40
2012,08,20,15,45,23.50
2012,08,20,15,46,23.60
2012,08,20,15,47,23.60
2012,08,20,15,48,23.70
2012,08,20,15,49,23.80
2012,08,20,15,50,23.70
2012,08,20,15,51,23.70
2012,08,20,15,52,23.60
2012,08,20,15,53,23.40
2012,08,20,15,54,23.30
2012,08,20,15,55,23.20
2012,08,20,15,56,23.20
2012,08,20,15,57,23.20
2012,08,20,15,58,23.20
2012,08,20,15,59,23.10
2012,08,20,16,00,23.10
2012,08,20,16,01,23.10
2012,08,20,16,02,23.10
2012,08,20,16,03,23.00
2012,08,20,16,04,22.90
2012,08,20,16,05,22.90
2012,08,20,16,06,23.00
2012,08,20,16,07,23.10
2012,08,20,16,08,23.00
2012,08,20,16,09,23.00
2012,08,20,16,10,23.00
2012,08,20,16,11,23.00
2012,08,20,16,12,23.10
2012,08,20,16,13,23.10
2012,08,20,16,14,23.10
2012,08,20,16,15,23.10
2012,08,20,16,16,23.10
2012,08,20,16,17,23.10
2012,08,20,16,18,23.20
2012,08,20,16,19,23.30
2012,08,20,16,20,23.30
2012,08,20,16,21,23.30
2012,08,20,16,22,23.40
2012,08,20,16,23,23.40
2012,08,20,16,24,23.40
2012,08,20,16,25,23.40
2012,08,20,16,26,23.40
2012,08,20,16,27,23.40
2012,08,20,16,28,23.40
2012,08,20,16,29,23.30
2012,08,20,16,30,23.20
2012,08,20,16,31,23.10
2012,08,20,16,32,23.10
2012,08,20,16,33,23.00
2012,08,20,16,34,22.90
2012,08,20,16,35,22.90
2012,08,20,16,36,22.90
2012,08,20,16,37,22.90
2012,08,20,16,38,22.90
2012,08,20,16,39,23.00
2012,08,20,16,40,23.00
2012,08,20,16,41,23.10
2012,08,20,16,42,23.10
2012,08,20,16,43,23.20
2012,08,20,16,44,23.20
2012,08,20,16,45,23.30
2012,08,20,16,46,23.30
2012,08,20,16,47,23.30
2012,08,20,16,48,23.30
2012,08,20,16,49,23.30
2012,08,20,16,50,23.20
2012,08,20,16,51,23.10
2012,08,20,16,52,23.10
2012,08,20,16,53,23.10
2012,08,20,16,54,23.00
2012,08,20,16,55,23.00
2012,08,20,16,56,23.10
2012,08,20,16,57,23.10
2012,08,20,16,58,23.20
2012,08,20,16,59,23.20
2012,08,20,17,00,23.20
2012,08,20,17,01,23.20
2012,08,20,17,02,23.20
2012,08,20,17,03,23.20
2012,08,20,17,04,23.20
2012,08,20,17,05,23.20
2012,08,20,17,06,23.20
2012,08,20,17,07,23.20
2012,08,20,17,08,23.20
2012,08,20,17,09,23.10
2012,08,20,17,10,23.10
2012,08,20,17,11,23.10
2012,08,20,17,12,23.10
2012,08,20,17,13,23.20
2012,08,20,17,14,23.20
2012,08,20,17,15,23.20
2012,08,20,17,16,23.20
2012,08,20,17,17,23.20
2012,08,20,17,18,23.10
2012,08,20,17,19,23.20